Tracking 22779 objects as of 10-Apr-2021
HD Live streaming from Space Station
objects crossing your sky now

GAOFEN 8 DEB

Track GAOFEN 8 DEB now!
10-day predictions


NORAD ID: 43422
Int'l Code: 2015-030C
Perigee: 453.5 km
Apogee: 458.7 km
Inclination: 97.6 °
Period: 93.6 minutes
Semi major axis: 6827 km
RCS: Unknown
Launch date: June 26, 2015
Source: People's Republic of China (PRC)
Launch site: Taiyaun Space Center, China (TSC)

Note: This is SATELLITE DEBRIS
aabbcc
Your satellite tracking list
Your tracking list is empty




NASA's NSSDC Master Catalog

Two Line Element Set (TLE):
1 43422U 15030C   21098.25182041  .00002288  00000-0  61458-4 0  9995
2 43422  97.5524 264.5536 0003788 232.8879 127.2020 15.39028952317699
Source of the keplerian elements: AFSPC